Location: Cisewo
(53.3833°N, 14.9000°E)
Time: 12:20:18
(UTC+00:00)

Cosmos 2297 Rocket - Pass Details

Date: 18 April 2021
Orbit: 838 x 845 km, 71.0° (Epoch: 14 May)

Event Time Altitude Azimuth Distance (km) Brightness Sun altitude
Exits shadow 20:02:10 10° 183° (S) 2,471 4.2 -15.3°
Reaches altitude 10° 20:02:13 10° 182° (S) 2,452 4.2 -15.3°
Maximum altitude 20:07:33 46° 111° (ESE) 1,125 2.4 -15.8°
Drops below altitude 10° 20:12:56 10° 40° (NE) 2,472 4.7 -16.4°
Sets 20:15:28 0° 35° (NE) 3,412 5.5 -16.6°
